[ hide orbit diagram ]
For accurate long-term ephemerides, please instead use our Horizons system.This orbit viewer was implemented using two-body methods, and hence should not be used for determining accurate long-term trajectories (over several years or decades) or planetary encounter circumstances.
[ revert to old Java-based viewer ]
Orbital Elements at Epoch 2458600.5 (2019-Apr-27.0) TDB
Reference: JPL 4 (heliocentric ecliptic J2000)
Element | Value | Uncertainty (1-sigma) | Units |
e | .1828339565654588 | 1.5398e-07 | |
a | 2.735680206463884 | 3.0236e-08 | au |
q | 2.235504970418281 | 4.196e-07 | au |
i | 6.770343354715557 | 1.3923e-05 | deg |
node | 110.271539611775 | 0.00012092 | deg |
peri | 48.85633347164871 | 0.00014846 | deg |
M | 107.5257221041143 | 6.9656e-05 | deg |
tp | 2458106.864611894925 (2017-Dec-19.36461189) | 0.00031765 | TDB |
period | 1652.709102904293 4.52 | 2.7399e-05 7.501e-08 | d yr |
n | .217824176902865 | 3.6112e-09 | deg/d |
Q | 3.235855442509488 | 3.5764e-08 | au |
|
| | Orbit Determination Parameters
Additional Information
|
[ show covariance matrix ]
Physical Parameter Table
Parameter |
Symbol |
Value |
Units |
Sigma |
Reference |
Notes |
absolute magnitude |
H |
17.4 |
|
n/a |
MPO434217 |
|
|
351176 (2004 BP62) Discovered 2004-Jan-22 by LINEAR at Socorro |
Reference: 20130127/Numbers.arc | Last Updated: 2013-01-31 |
|
[ show close-approach data ]
|